DW3735 Weather Reports


Display with metric or nautical units.
time (UTC)temp
F
wind
direction
speed
MPH
gust
MPH
rain 1hr
in
rain 24hr
in
rain mn
in
humidity
%
barometer
mb
20210305185838 21 5 4.0 11.0 0.00 0.00 0.00 49 1006.8
20210305184547 21 13 5.0 10.0 0.00 0.00 0.00 47 1006.7
20210305183543 21 10 8.0 10.0 0.00 0.00 0.00 46 1006.6
20210305182745 21 14 8.0 10.0 0.00 0.00 0.00 45 1006.5
20210305181541 21 5 4.0 8.0 0.00 0.00 0.00 44 1006.6
20210305180542 20 322 3.0 7.0 0.00 0.00 0.00 44 1006.6
20210305175928 18 269 3.0 6.0 0.00 0.00 0.00 48 1006.7
20210305174559 18 333 3.0 6.0 0.00 0.00 0.00 46 1006.6
20210305173543 17 351 4.0 5.0 0.00 0.00 0.00 49 1006.7
20210305172848 17 329 4.0 8.0 0.00 0.00 0.00 47 1006.7
20210305171559 17 281 4.0 8.0 0.00 0.00 0.00 47 1006.8
20210305170544 16 286 4.0 9.0 0.00 0.00 0.00 50 1006.9
20210305165940 15 338 2.0 6.0 0.00 0.00 0.00 49 1007.1
20210305164552 15 333 4.0 8.0 0.00 0.00 0.00 49 1007.1
20210305164103 15 331 5.0 7.0 0.00 0.00 0.00 49 1007.4
20210305163347 15 0 5.0 9.0 0.00 0.00 0.00 49 1007.4
20210305161546 14 316 3.0 9.0 0.00 0.00 0.00 51 1007.5
20210305160542 13 343 5.0 5.0 0.00 0.00 0.00 51 1007.5
20210305155747 13 333 4.0 6.0 0.00 0.00 0.00 52 1007.6
20210305154543 12 325 3.0 8.0 0.00 0.00 0.00 51 1007.8
20210305153542 12 339 5.0 9.0 0.00 0.00 0.00 51 1007.8
20210305153032 12 338 4.0 6.0 0.00 0.00 0.00 52 1008.0
20210305151545 12 338 6.0 8.0 0.00 0.00 0.00 51 1008.0
20210305150541 11 335 4.0 5.0 0.00 0.00 0.00 53 1008.2
20210305145852 11 5 6.0 8.0 0.00 0.00 0.00 52 1008.3
20210305144559 10 325 4.0 9.0 0.00 0.00 0.00 53 1008.4
20210305143543 10 337 4.0 8.0 0.00 0.00 0.00 53 1008.5
20210305142811 9 329 5.0 10.0 0.00 0.00 0.00 54 1008.6
20210305141601 8 325 2.0 6.0 0.00 0.00 0.00 54 1008.8
20210305140552 8 327 2.0 3.0 0.00 0.00 0.00 53 1008.9
20210305140059 8 328 2.0 3.0 0.00 0.00 0.00 53 1009.0
20210305134604 7 299 2.0 4.0 0.00 0.00 0.00 54 1009.2
20210305133540 6 305 2.0 5.0 0.00 0.00 0.00 55 1009.4
20210305132857 6 329 1.0 4.0 0.00 0.00 0.00 54 1009.7
20210305131551 5 344 2.0 5.0 0.00 0.00 0.00 55 1009.9
20210305130616 4 355 3.0 5.0 0.00 0.00 0.00 56 1010.0
20210305130031 4 355 1.0 3.0 0.00 0.00 0.00 57 1010.1
20210305124540 3 303 2.0 3.0 0.00 0.00 0.00 57 1010.2
20210305123624 3 355 1.0 4.0 0.00 0.00 0.00 57 1010.3
20210305123156 3 355 2.0 4.0 0.00 0.00 0.00 57 1010.4
20210305121542 3 330 1.0 3.0 0.00 0.00 0.00 56 1010.5
20210305120552 3 330 2.0 4.0 0.00 0.00 0.00 56 1010.6
20210305115924 3 350 2.0 4.0 0.00 0.00 0.00 55 1010.6
20210305114548 3 0 1.0 3.0 0.00 0.00 0.00 55 1010.7
20210305113558 3 0 2.0 3.0 0.00 0.00 0.00 54 1010.7
20210305112843 3 355 2.0 4.0 0.00 0.00 0.00 54 1010.8
20210305111548 4 345 2.0 5.0 0.00 0.00 0.00 54 1010.8
20210305110540 4 346 3.0 4.0 0.00 0.00 0.00 54 1010.9
20210305105943 4 340 3.0 5.0 0.00 0.00 0.00 53 1010.9
20210305104545 4 348 2.0 6.0 0.00 0.00 0.00 54 1010.9
20210305103543 5 351 4.0 7.0 0.00 0.00 0.00 54 1010.9
20210305102750 5 339 2.0 5.0 0.00 0.00 0.00 54 1010.9
20210305101550 5 348 2.0 5.0 0.00 0.00 0.00 53 1010.9
20210305100542 5 11 4.0 7.0 0.00 0.00 0.00 54 1011.1
20210305095858 5 346 3.0 6.0 0.00 0.00 0.00 53 1011.1
20210305094542 5 348 3.0 6.0 0.00 0.00 0.00 53 1011.1
20210305093545 6 348 3.0 5.0 0.00 0.00 0.00 53 1011.1
20210305092817 6 0 5.0 7.0 0.00 0.00 0.00 53 1011.1
20210305091540 6 348 4.0 6.0 0.00 0.00 0.00 53 1011.0
20210305090544 6 38 2.0 9.0 0.00 0.00 0.00 52 1011.0
20210305085754 6 5 4.0 8.0 0.00 0.00 0.00 53 1011.0
20210305084540 6 5 4.0 8.0 0.00 0.00 0.00 53 1011.1
20210305083540 7 348 4.0 7.0 0.00 0.00 0.00 53 1011.1
20210305082916 7 5 4.0 8.0 0.00 0.00 0.00 53 1011.1
20210305081544 7 351 4.0 5.0 0.00 0.00 0.00 53 1011.2
20210305080552 7 0 4.0 7.0 0.00 0.00 0.00 53 1011.2
20210305075932 8 351 1.0 5.0 0.00 0.00 0.00 53 1011.3
20210305074541 8 340 5.0 8.0 0.00 0.00 0.00 53 1011.3
20210305073542 8 332 6.0 9.0 0.00 0.00 0.00 54 1011.4
20210305072827 8 345 4.0 10.0 0.00 0.00 0.00 53 1011.6
20210305071541 8 346 5.0 6.0 0.00 0.00 0.00 54 1011.7
20210305070541 9 343 5.0 8.0 0.00 0.00 0.00 53 1011.8
20210305065838 9 345 4.0 5.0 0.00 0.00 0.00 53 1011.9
20210305064556 9 334 5.0 8.0 0.00 0.00 0.00 52 1012.0
20210305063540 9 5 4.0 8.0 0.00 0.00 0.00 52 1012.0
20210305062944 9 338 5.0 9.0 0.00 0.00 0.00 52 1012.0
20210305061540 9 340 5.0 7.0 0.00 0.00 0.00 53 1012.0
20210305060541 9 0 5.0 9.0 0.00 0.00 0.00 52 1012.1
20210305055843 9 350 4.0 8.0 0.00 0.00 0.00 53 1012.2
20210305054550 10 348 5.0 11.0 0.00 0.00 0.00 52 1012.3
20210305053540 10 340 5.0 9.0 0.00 0.00 0.00 53 1012.4
20210305052810 10 342 4.0 6.0 0.00 0.00 0.00 51 1012.4
20210305051548 10 347 3.0 9.0 0.00 0.00 0.00 51 1012.3
20210305050540 10 355 5.0 8.0 0.00 0.00 0.00 51 1012.4
20210305045825 11 5 3.0 6.0 0.00 0.00 0.00 50 1012.4
20210305044541 11 22 6.0 8.0 0.00 0.00 0.00 49 1012.3
20210305043544 11 338 6.0 8.0 0.00 0.00 0.00 47 1012.3
20210305042922 11 9 4.0 9.0 0.00 0.00 0.00 47 1012.4
20210305041545 12 355 3.0 8.0 0.00 0.00 0.00 46 1012.4
20210305040557 12 5 3.0 6.0 0.00 0.00 0.00 46 1012.5
20210305040128 12 5 5.0 7.0 0.00 0.00 0.00 45 1012.6
20210305034643 12 340 4.0 7.0 0.00 0.00 0.00 45 1012.8
20210305033540 12 348 3.0 9.0 0.00 0.00 0.00 45 1012.9
20210305032653 13 345 5.0 8.0 0.00 0.00 0.00 44 1012.8
20210305031540 13 355 4.0 6.0 0.00 0.00 0.00 44 1013.0
20210305030548 13 346 3.0 9.0 0.00 0.00 0.00 44 1013.1
20210305025933 13 46 9.0 8.0 0.00 0.00 0.00 44 1013.1
20210305024552 13 335 3.0 9.0 0.00 0.00 0.00 44 1013.2
20210305023544 13 355 3.0 10.0 0.00 0.00 0.00 44 1013.3
20210305022854 13 15 4.0 8.0 0.00 0.00 0.00 44 1013.3
20210305021641 13 5 2.0 9.0 0.00 0.00 0.00 44 1013.4
20210305020542 13 57 1.0 7.0 0.00 0.00 0.00 45 1013.4
20210305015902 13 16 7.0 9.0 0.00 0.00 0.00 44 1013.3
20210305014603 14 23 4.0 8.0 0.00 0.00 0.00 44 1013.4
20210305013541 14 18 4.0 9.0 0.00 0.00 0.00 42 1013.4
20210305012910 14 355 4.0 8.0 0.00 0.00 0.00 43 1013.4
20210305011603 14 355 3.0 10.0 0.00 0.00 0.00 43 1013.4
20210305010546 15 0 3.0 7.0 0.00 0.00 0.00 44 1013.4
20210305005831 15 13 3.0 7.0 0.00 0.00 0.00 43 1013.4
20210305004553 15 344 5.0 9.0 0.00 0.00 0.00 41 1013.3
20210305003541 15 9 3.0 5.0 0.00 0.00 0.00 42 1013.4
20210305002817 15 12 2.0 6.0 0.00 0.00 0.00 43 1013.4
20210305001547 16 26 5.0 8.0 0.00 0.00 0.00 43 1013.4
20210305000721 16 5 3.0 7.0 0.00 0.00 0.00 43 1013.3
20210305000035 16 13 4.0 8.0 0.00 0.00 0.00 44 1013.4
20210304234606 16 346 4.0 5.0 0.00 0.00 0.00 44 1013.3
20210304233544 16 5 3.0 10.0 0.00 0.00 0.00 43 1013.4
20210304233032 17 0 4.0 5.0 0.00 0.00 0.00 45 1013.2
20210304231541 17 355 2.0 11.0 0.00 0.00 0.00 42 1013.1
20210304230550 17 17 5.0 10.0 0.00 0.00 0.00 41 1013.1
20210304225958 18 343 5.0 9.0 0.00 0.00 0.00 42 1013.1
20210304224553 18 22 6.0 9.0 0.00 0.00 0.00 42 1012.9
20210304223542 18 9 4.0 9.0 0.00 0.00 0.00 42 1012.8
20210304222858 18 355 4.0 8.0 0.00 0.00 0.00 41 1012.7
20210304221548 18 344 4.0 5.0 0.00 0.00 0.00 42 1012.6
20210304220547 18 0 3.0 9.0 0.00 0.00 0.00 40 1012.5
20210304220103 18 30 5.0 9.0 0.00 0.00 0.00 43 1012.6
20210304214606 19 344 4.0 8.0 0.00 0.00 0.00 41 1012.5
20210304213605 19 323 3.0 8.0 0.00 0.00 0.00 39 1012.4
20210304212842 19 355 3.0 10.0 0.00 0.00 0.00 37 1012.3
20210304211541 19 17 7.0 9.0 0.00 0.00 0.00 40 1012.3
20210304210541 20 23 9.0 10.0 0.00 0.00 0.00 38 1012.3
20210304205904 19 336 5.0 8.0 0.00 0.00 0.00 39 1012.3
20210304204609 19 342 8.0 10.0 0.00 0.00 0.00 39 1012.4
20210304203714 19 11 4.0 11.0 0.00 0.00 0.00 38 1012.4
20210304203154 19 342 4.0 9.0 0.00 0.00 0.00 39 1012.5
20210304201610 19 355 3.0 10.0 0.00 0.00 0.00 35 1012.6
20210304200541 19 5 5.0 11.0 0.00 0.00 0.00 36 1012.4
20210304200057 19 5 4.0 10.0 0.00 0.00 0.00 36 1012.4
20210304194554 19 350 3.0 5.0 0.00 0.00 0.00 39 1012.4
20210304193553 18 30 5.0 6.0 0.00 0.00 0.00 40 1012.4
20210304193027 18 5 3.0 8.0 0.00 0.00 0.00 37 1012.5
20210304191542 18 348 5.0 10.0 0.00 0.00 0.00 40 1012.3
20210304190547 18 355 4.0 8.0 0.00 0.00 0.00 39 1012.5